• In Uzbekistan
  • List of Countries
  • For 7 days
  • Water Temperature
  • Satellite Maps
  • Weather Map
  • Weather Widgets
  • user-avatar
    Login

    Hourly Weather Shalim

    Today, 23 May, Thursday

    Time Temperature Precipitation Wind Pressure Humidity
    00:00 +34°C° 0 mm 2 mps 733 mmHg 48%
    01:00 +33°C° 0 mm 1 mps 733 mmHg 49%
    02:00 +32°C° 0 mm 1 mps 733 mmHg 48%
    03:00 +32°C° 0 mm 1 mps 733 mmHg 48%
    04:00 +31°C° 0 mm 1 mps 733 mmHg 47%
    05:00 +32°C° 0 mm 1 mps 733 mmHg 44%
    06:00 +33°C° 0 mm 1 mps 734 mmHg 40%
    07:00 +35°C° 0 mm 2 mps 734 mmHg 37%
    08:00 +36°C° 0 mm 2 mps 734 mmHg 32%
    09:00 +38°C° 0 mm 2 mps 734 mmHg 27%
    10:00 +40°C° 0 mm 2 mps 735 mmHg 22%
    11:00 +41°C° 0 mm 2 mps 734 mmHg 21%
    12:00 +41°C° 0 mm 2 mps 734 mmHg 19%
    13:00 +42°C° 0 mm 2 mps 734 mmHg 18%
    14:00 +42°C° 0 mm 2 mps 733 mmHg 20%
    15:00 +43°C° 0 mm 3 mps 733 mmHg 21%
    16:00 +42°C° 0 mm 3 mps 732 mmHg 23%
    17:00 +41°C° 0 mm 4 mps 732 mmHg 30%
    18:00 +39°C° 0 mm 5 mps 732 mmHg 37%
    19:00 +36°C° 0 mm 5 mps 732 mmHg 44%
    20:00 +36°C° 0 mm 5 mps 732 mmHg 47%
    21:00 +35°C° 0 mm 5 mps 733 mmHg 49%
    22:00 +35°C° 0 mm 4 mps 733 mmHg 51%
    23:00 +34°C° 0 mm 4 mps 733 mmHg 53%

    Tomorrow, 24 May, Friday

    Time Temperature Precipitation Wind Pressure Humidity
    00:00 +34°C° 0 mm 3 mps 733 mmHg 54%
    01:00 +33°C° 0 mm 3 mps 732 mmHg 55%
    02:00 +32°C° 0 mm 2 mps 732 mmHg 55%
    03:00 +32°C° 0 mm 2 mps 732 mmHg 55%
    04:00 +32°C° 0 mm 2 mps 732 mmHg 55%
    05:00 +32°C° 0 mm 1 mps 733 mmHg 51%
    06:00 +33°C° 0 mm 1 mps 733 mmHg 48%
    07:00 +33°C° 0 mm 1 mps 733 mmHg 44%
    08:00 +35°C° 0 mm 1 mps 734 mmHg 38%
    09:00 +37°C° 0 mm 1 mps 734 mmHg 32%
    10:00 +39°C° 0 mm 1 mps 735 mmHg 26%
    11:00 +40°C° 0 mm 2 mps 734 mmHg 24%
    12:00 +41°C° 0 mm 2 mps 734 mmHg 23%
    13:00 +43°C° 0 mm 3 mps 734 mmHg 21%
    14:00 +43°C° 0 mm 4 mps 733 mmHg 23%
    15:00 +42°C° 0 mm 5 mps 733 mmHg 24%
    16:00 +42°C° 0 mm 6 mps 732 mmHg 26%
    17:00 +40°C° 0 mm 6 mps 732 mmHg 32%
    18:00 +38°C° 0 mm 6 mps 732 mmHg 37%
    19:00 +36°C° 0 mm 5 mps 732 mmHg 42%
    20:00 +35°C° 0 mm 5 mps 733 mmHg 45%
    21:00 +35°C° 0 mm 5 mps 733 mmHg 48%
    22:00 +34°C° 0 mm 4 mps 734 mmHg 51%
    23:00 +34°C° 0 mm 4 mps 733 mmHg 51%

    Day after tomorrow, 25 May, Saturday

    Time Temperature Precipitation Wind Pressure Humidity
    00:00 +33°C° 0 mm 4 mps 733 mmHg 52%
    01:00 +33°C° 0 mm 4 mps 733 mmHg 52%
    02:00 +33°C° 0 mm 3 mps 733 mmHg 52%
    03:00 +33°C° 0 mm 3 mps 733 mmHg 52%
    04:00 +31°C° 0 mm 2 mps 732 mmHg 51%
    05:00 +32°C° 0 mm 2 mps 733 mmHg 50%
    06:00 +32°C° 0 mm 2 mps 733 mmHg 49%
    07:00 +32°C° 0 mm 2 mps 733 mmHg 48%
    08:00 +35°C° 0 mm 2 mps 734 mmHg 41%
    09:00 +37°C° 0 mm 3 mps 734 mmHg 33%
    10:00 +39°C° 0 mm 3 mps 735 mmHg 26%
    11:00 +40°C° 0 mm 3 mps 734 mmHg 24%
    12:00 +42°C° 0 mm 4 mps 734 mmHg 22%
    13:00 +43°C° 0 mm 4 mps 734 mmHg 20%
    14:00 +43°C° 0 mm 5 mps 733 mmHg 21%
    15:00 +42°C° 0 mm 6 mps 732 mmHg 23%
    16:00 +43°C° 0 mm 7 mps 732 mmHg 24%
    17:00 +41°C° 0 mm 6 mps 732 mmHg 29%
    18:00 +39°C° 0 mm 6 mps 732 mmHg 34%
    19:00 +36°C° 0 mm 6 mps 732 mmHg 38%
    20:00 +36°C° 0 mm 6 mps 732 mmHg 41%
    21:00 +35°C° 0 mm 5 mps 732 mmHg 45%
    22:00 +34°C° 0 mm 5 mps 733 mmHg 48%
    23:00 +34°C° 0 mm 5 mps 732 mmHg 50%

    26 May, Sunday

    Time Temperature Precipitation Wind Pressure Humidity
    00:00 +34°C° 0 mm 4 mps 732 mmHg 51%
    01:00 +33°C° 0 mm 4 mps 731 mmHg 53%
    02:00 +33°C° 0 mm 4 mps 731 mmHg 53%
    03:00 +33°C° 0 mm 4 mps 731 mmHg 52%
    04:00 +32°C° 0 mm 4 mps 731 mmHg 52%
    05:00 +33°C° 0 mm 3 mps 731 mmHg 49%
    06:00 +33°C° 0 mm 3 mps 732 mmHg 46%
    07:00 +34°C° 0 mm 2 mps 732 mmHg 43%
    08:00 +36°C° 0 mm 2 mps 733 mmHg 36%
    09:00 +38°C° 0 mm 2 mps 733 mmHg 29%
    10:00 +40°C° 0 mm 2 mps 733 mmHg 22%
    11:00 +42°C° 0 mm 3 mps 733 mmHg 20%
    12:00 +43°C° 0 mm 4 mps 732 mmHg 19%
    13:00 +43°C° 0 mm 4 mps 732 mmHg 18%
    14:00 +43°C° 0 mm 5 mps 731 mmHg 19%
    15:00 +44°C° 0 mm 6 mps 731 mmHg 20%
    16:00 +44°C° 0 mm 7 mps 730 mmHg 22%
    17:00 +41°C° 0 mm 7 mps 731 mmHg 26%
    18:00 +39°C° 0 mm 6 mps 731 mmHg 30%
    19:00 +38°C° 0 mm 6 mps 731 mmHg 35%
    20:00 +36°C° 0 mm 6 mps 731 mmHg 38%
    21:00 +36°C° 0 mm 5 mps 731 mmHg 42%
    22:00 +35°C° 0 mm 5 mps 732 mmHg 45%
    23:00 +34°C° 0 mm 5 mps 732 mmHg 48%

    27 May, Monday

    Time Temperature Precipitation Wind Pressure Humidity
    00:00 +34°C° 0 mm 5 mps 731 mmHg 52%
    01:00 +33°C° 0 mm 5 mps 731 mmHg 55%
    02:00 +33°C° 0 mm 5 mps 731 mmHg 56%
    03:00 +32°C° 0 mm 4 mps 731 mmHg 57%
    04:00 +32°C° 0 mm 4 mps 730 mmHg 59%
    05:00 +32°C° 0 mm 4 mps 731 mmHg 58%
    06:00 +31°C° 0 mm 3 mps 732 mmHg 56%
    07:00 +33°C° 0 mm 3 mps 732 mmHg 55%
    08:00 +35°C° 0 mm 3 mps 732 mmHg 47%
    09:00 +36°C° 0 mm 3 mps 733 mmHg 38%
    10:00 +38°C° 0 mm 2 mps 733 mmHg 30%
    11:00 +39°C° 0 mm 3 mps 733 mmHg 28%
    12:00 +42°C° 0 mm 3 mps 732 mmHg 25%
    13:00 +43°C° 0 mm 4 mps 731 mmHg 23%
    14:00 +42°C° 0 mm 5 mps 731 mmHg 27%
    15:00 +41°C° 0 mm 6 mps 731 mmHg 30%
    16:00 +41°C° 0 mm 8 mps 730 mmHg 33%
    17:00 +39°C° 0 mm 8 mps 730 mmHg 40%
    18:00 +36°C° 0 mm 7 mps 731 mmHg 46%
    19:00 +35°C° 0 mm 7 mps 731 mmHg 53%
    20:00 +34°C° 0 mm 7 mps 731 mmHg 56%
    21:00 +33°C° 0 mm 7 mps 732 mmHg 59%
    22:00 +33°C° 0 mm 7 mps 732 mmHg 63%
    23:00 +32°C° 0 mm 7 mps 732 mmHg 65%

    28 May, Tuesday

    Time Temperature Precipitation Wind Pressure Humidity
    00:00 +32°C° 0 mm 7 mps 731 mmHg 67%
    01:00 +32°C° 0 mm 8 mps 731 mmHg 69%
    02:00 +30°C° 0 mm 7 mps 731 mmHg 69%
    03:00 +30°C° 0 mm 7 mps 731 mmHg 70%
    04:00 +30°C° 0 mm 6 mps 731 mmHg 70%
    05:00 +30°C° 0 mm 6 mps 731 mmHg 68%
    06:00 +32°C° 0 mm 5 mps 732 mmHg 66%
    07:00 +32°C° 0 mm 4 mps 733 mmHg 64%
    08:00 +34°C° 0 mm 4 mps 733 mmHg 54%
    09:00 +36°C° 0 mm 4 mps 733 mmHg 45%
    10:00 +38°C° 0 mm 4 mps 733 mmHg 35%
    11:00 +40°C° 0 mm 4 mps 733 mmHg 32%
    12:00 +41°C° 0 mm 5 mps 732 mmHg 29%
    13:00 +42°C° 0 mm 5 mps 732 mmHg 27%
    14:00 +42°C° 0 mm 6 mps 731 mmHg 30%
    15:00 +41°C° 0 mm 7 mps 731 mmHg 33%
    16:00 +41°C° 0 mm 7 mps 730 mmHg 36%
    17:00 +39°C° 0 mm 7 mps 731 mmHg 45%
    18:00 +37°C° 0 mm 8 mps 731 mmHg 54%
    19:00 +34°C° 0 mm 8 mps 731 mmHg 63%
    20:00 +33°C° 0 mm 8 mps 731 mmHg 66%
    21:00 +33°C° 0 mm 8 mps 732 mmHg 69%
    22:00 +32°C° 0 mm 8 mps 732 mmHg 72%
    23:00 +32°C° 0 mm 8 mps 732 mmHg 72%
    Show more